Regional Weather Roundup
Issued by NWS

Home | Current Version | Previous Version | Text Only | Print | Product List | Glossary Off
Versions: 1 2 3 4 5 6 7 8 9 10 11 12 13 14 15 16 17 18 19 20 21 22 23 24 25 26 27 28 29 30 31 32 33 34 35 36 37 38 39 40 41 42 43 44 45 46 47 48 49 50

000
ASUS45 KTFX 052219
RWRMT
MONTANA HOURLY WEATHER ROUNDUP
NATIONAL WEATHER SERVICE GREAT FALLS MT
319 PM MST THU MAR 5 2015

NOTE: "FAIR" INDICATES FEW OR NO CLOUDS BELOW 12000 FEET WITH NO
SIGNIFICANT WEATHER AND/OR OBSTRUCTIONS TO VISIBILITY.

* THESE STATIONS ARE NOT UNDER NWS QUALITY CONTROL. THEY DO NOT
   REPORT WEATHER SUCH AS PRECIPITATION OR FOG.

MTZ001>007-043-052300-
WEST OF THE DIVIDE
CITY           SKY/WX    TMP DP  RH WIND       PRES   REMARKS
KALISPELL      CLOUDY    43  16  34 VRB7      30.26F
MISSOULA       PTCLDY    46  10  23 CALM      30.26F
BUTTE          CLOUDY    45   7  21 W9        30.20S
MULLAN PASS    PTCLDY    37  12  36 VRB5      30.22S WCI  33
* ANACONDA     CLOUDY    41  14  33 N6         N/A
* ESSEX        N/A       39   9  29 NW6        N/A   WCI  35
* EUREKA APT   PTSUNNY   37  16  42 CALM      30.27F
* HAMILTON APT PTCLDY    52   9  17 S8        30.24F
* LIBBY APT    PTCLDY    46  16  30 CALM      30.26F
* LINCOLN      N/A       42   6  22 W5G15      N/A
* LOOKOUT PASS N/A       43  14  31 SE7G14     N/A
* POLSON       N/A       43  15  32 SE3        N/A
* RONAN APT    PTSUNNY   46  19  34 W5         N/A
* SEELEY LAKE  N/A       48   9  20 NW7G13     N/A
* THOMP F APT  PTSUNNY   33  11  40 SE5G14     N/A   WCI  28
$$

MTZ008-052>055-052300-
SOUTHWEST MONTANA
CITY           SKY/WX    TMP DP  RH WIND       PRES   REMARKS
BOZEMAN        PTCLDY    48  10  21 NW3       30.20S
DILLON         PTSUNNY   46   7  20 SW24      30.19F
* W YELLOWSTON PTCLDY    36  12  37 SW7G17     N/A   WCI  30
* THREE FORKS  PTSUNNY   50   9  19 SW9        N/A
* BOULDER HILL N/A       41   4  21 N5         N/A
* MONIDA PASS  N/A       29  12  49 SE18G24    N/A   WCI  17
* RAYNOLDS PAS N/A       29  12  49 SE17       N/A   WCI  17
* WHITEHALL    N/A       53   7  15 SW15G27    N/A
* WISE RIVER   N/A       44   2  17 W13G23     N/A
$$

MTZ009>010-012-014-046-048-049-054-052300-
EAST SLOPES AND CENTRAL MONTANA
CITY           SKY/WX    TMP DP  RH WIND       PRES   REMARKS
CUT BANK       CLOUDY    46  12  25 W28G35    30.05S
GREAT FALLS    CLOUDY    48  16  28 W28G36    30.08F
HELENA         CLOUDY    46   9  22 NW5       30.18F
MALMSTROM AFB  CLOUDY    50  16  26 W25G33    30.11R
* CONRAD       CLOUDY    48  12  23 SW18G25    N/A
* DEARBORN     N/A       45   8  22 S11G16     N/A
* EAST GLACIER N/A       37  11  34 W24G32     N/A   WCI  26
* MONARCH      N/A       37   6  27 W19G26     N/A   WCI  27
* PENDROY      N/A       42  18  38 W9G15      N/A
* ROGERS PASS  N/A       35   5  28 SE12G20    N/A   WCI  27
* SWEET GRASS  N/A       44  22  42 NW15       N/A
* WHITE SULPH  N/A       43   8  24 W5G15      N/A
$$

MTZ011-013-016-021-035-040-045-047-050-051-052300-
NORTH CENTRAL MONTANA
CITY           SKY/WX    TMP DP  RH WIND       PRES   REMARKS
HAVRE          CLOUDY    52  14  22 W18G26    30.04S
LEWISTOWN      PTSUNNY   45  21  38 W10G21    30.09S
* N BAR RANCH  SUNNY     43  16  34 NW12G22   30.09R
* CHINOOK      PTSUNNY   52  16  24 W16G22    30.04S
* FORT BENTON  PTSUNNY   54  12  19 W18G29    30.07S
* CHESTER      N/A       48  13  24 W13G23     N/A
* DENTON       N/A       47  13  25 W23G29     N/A
* GEYSER       N/A       47  12  24 W27G37     N/A
* JUDITH GAP   N/A       43  13  29 VRB4       N/A
* LOMA         N/A       53  13  20 W11G19     N/A
$$

MTZ017>020-022>027-061-062-052300-
NORTHEAST MONTANA
CITY           SKY/WX    TMP DP  RH WIND       PRES   REMARKS
GLASGOW        SUNNY     48  14  25 W12       30.03S
GLENDIVE       PTSUNNY   45  16  31 NW17G22   30.07S
JORDAN         SUNNY     50  14  24 NW17      30.06S
SIDNEY         PTCLDY    45  14  28 W20       30.06S
WOLF POINT     PTCLDY    50  18  28 NW17      30.03F
* BEAVER HILL  N/A       42  12  29 NW17G27    N/A
* CIRCLE       N/A       46  19  34 W7G14      N/A
* LINDSAY DVD  N/A       42  13  31 W23G29     N/A
* NAVAJO       N/A       40  18  41 NW18G25    N/A   WCI  31
* PLENTYWOOD A SUNNY     39  19  45 W16       29.98S WCI  30
* POPLAR APT   SUNNY     46  14  27 NW18G24   30.03S
* SACO         N/A       51  15  24 W19G24     N/A
* SCOBEY APT   SUNNY     43  16  34 W20G28     N/A
$$

MTZ028>042-056>058-052300-
SOUTHCENTRAL AND SOUTHEAST MONTANA
CITY           SKY/WX    TMP DP  RH WIND       PRES   REMARKS
BAKER          SUNNY     45  12  26 NW17G30   30.06R
BILLINGS       PTSUNNY   46  16  30 SW16G25   30.11S
LIVINGSTON     CLOUDY    48   9  20 W21       30.15R
MILES CITY     SUNNY     50  14  24 N/A       30.08S
* BIG TIMBER A PTSUNNY   46   7  20 W30G39    30.11R
* FORSYTH APT  SUNNY     52  10  18 W13G23    30.09R
* LAUREL APT   PTCLDY    46  14  27 S11G20     N/A
* ROUNDUP APT  PTSUNNY   52   7  16 W8         N/A
* ALZADA       N/A       43  17  35 W15G21     N/A
* HYSHAM       N/A       49   7  18 W6G18      N/A
* LAME DEER    N/A       41  12  30 W9G16      N/A
* REED POINT   N/A       50  12  22 W19G30     N/A
* ROSCOE HILL  N/A       37  10  33 SE8        N/A   WCI  31
$$

REGIONAL REPORTS...DAKOTAS
CITY           SKY/WX    TMP DP  RH WIND       PRES   REMARKS
WILLISTON      SUNNY     39  16  39 W14       30.02S WCI  31
DICKINSON      SUNNY     43   9  25 W18G26    30.01R
BEACH          SUNNY     41  10  28 NW21G28   30.05R
CROSBY         SUNNY     32  18  56 SW16      30.00S WCI  21
TIOGA          SUNNY     30  14  51 W15       30.03S WCI  19
WATFORD CITY   SUNNY     36  14  40 W14       30.01F WCI  27
BISMARCK       SUNNY     39  10  30 W7        30.04F WCI  34
GRAND FORKS    SUNNY     25  12  58 S24G31    30.14F WCI  10
FARGO          SUNNY     25   7  46 S21G28    30.21F WCI  10
BUFFALO SD     SUNNY     45  10  24 NW26G35   30.00R
RAPID CITY     SUNNY     48  16  28 N22G29    30.08S
$$

REGIONAL REPORTS...WYOMING/IDAHO/WASHINGTON
CITY           SKY/WX    TMP DP  RH WIND       PRES   REMARKS
GILLETTE       SUNNY     43  18  37 NW17G24   30.11S
SHERIDAN       SUNNY     39  21  48 SW6       30.14R WCI  35
CODY           PTSUNNY   43  19  38 E13       30.13S
YELLOWSTONE LA PTCLDY    34   3  27 W8        30.27S WCI  27
SALMON         PTCLDY    45  12  26 CALM      30.26F
MULLAN PASS    PTCLDY    37  12  36 VRB5      30.22S WCI  33
SAND POINT     PTCLDY    45  23  42 SE6       30.28F
SPOKANE        PTSUNNY   50  19  29 W7        30.28F
$$

REGIONAL REPORTS...ALBERTA
CITY           SKY/WX    TMP DP  RH WIND       PRES   REMARKS
CALGARY        CLOUDY    52  18  26 W8        29.98S
LETHBRIDGE     CLOUDY    46  16  30 W25G35    30.03S
MEDICINE HAT   CLOUDY    46  25  44 S8        30.03S
EDMONTON       PTSUNNY   36  27  70 SW9       29.96F WCI  29
WATERTON GATE  N/A       39  16  39 SW17G23    N/A   WCI  30
CARDSTON       N/A       43  23  45 W17G25     N/A
MILK RIVER     N/A       45  27  49 W10        N/A
$$

REGIONAL REPORTS...SASKATCHEWAN
CITY           SKY/WX    TMP DP  RH WIND       PRES   REMARKS
SWIFT CURRENT  SUNNY     37  23  57 W18G28    29.94S WCI  27
MOOSE JAW      PTSUNNY   36  25  64 W16       29.95S WCI  26
REGINA         PTSUNNY   28  19  69 W17G24    29.93F WCI  16
VAL MARIE      N/A       46  18  33 NW18G24    N/A
ASSINIBOIA     N/A       37  21  52 W16        N/A   WCI  28
CORONACH       N/A       43  21  42 W13        N/A

$$



USA.gov is the U.S. government's official web portal to all federal, state and local government web resources and services.